EW1762 Weather Reports


time (UTC)temp
C
wind
direction
speed
KPH
gust
KPH
rain 1hr
cm
rain 24hr
cm
rain mn
cm
humidity
%
barometer
mb
20260504215026 22 170 1.6 12.9 0.00 0.00 0.00 37 1009.0
20260504214525 22 162 4.8 19.3 0.00 0.00 0.00 36 1009.0
20260504214257 22 165 6.4 25.7 0.00 0.00 0.00 36 1009.1
20260504213524 22 155 6.4 25.7 0.00 0.00 0.00 36 1009.0
20260504213022 22 140 4.8 24.1 0.00 0.00 0.00 36 1009.1
20260504212523 22 193 1.6 14.5 0.00 0.00 0.00 35 1009.0
20260504212026 22 150 3.2 20.9 0.00 0.00 0.00 35 1009.0
20260504211523 22 132 3.2 20.9 0.00 0.00 0.00 37 1009.0
20260504211023 22 198 3.2 19.3 0.00 0.00 0.00 35 1009.0
20260504210523 22 193 3.2 14.5 0.00 0.00 0.00 36 1009.1
20260504210019 22 193 3.2 16.1 0.00 0.00 0.00 35 1009.1
20260504205518 22 191 1.6 16.1 0.00 0.00 0.00 35 1009.1
20260504205017 22 178 3.2 14.5 0.00 0.00 0.00 36 1009.1
20260504204520 22 150 3.2 14.5 0.00 0.00 0.00 36 1009.2
20260504204017 22 165 1.6 12.9 0.00 0.00 0.00 36 1009.3
20260504203519 22 159 3.2 16.1 0.00 0.00 0.00 37 1009.3
20260504203014 22 140 3.2 16.1 0.00 0.00 0.00 36 1009.4
20260504202514 22 176 3.2 16.1 0.00 0.00 0.00 35 1009.4
20260504202014 22 144 3.2 16.1 0.00 0.00 0.00 36 1009.5
20260504201745 22 153 4.8 16.1 0.00 0.00 0.00 35 1009.5
20260504201014 22 121 6.4 16.1 0.00 0.00 0.00 35 1009.6
20260504200518 22 119 4.8 17.7 0.00 0.00 0.00 36 1009.8
20260504200514 22 150 4.8 16.1 0.00 0.00 0.00 35 1009.7
20260504195742 22 162 4.8 22.5 0.00 0.00 0.00 35 1009.9
20260504195008 22 171 4.8 22.5 0.00 0.00 0.00 34 1010.0
20260504194738 22 180 3.2 19.3 0.00 0.00 0.00 35 1010.1
20260504194004 22 221 3.2 17.7 0.00 0.00 0.00 34 1010.2
20260504193504 21 149 3.2 16.1 0.00 0.00 0.00 35 1010.3
20260504193005 21 187 3.2 16.1 0.00 0.00 0.00 35 1010.4
20260504192506 21 186 3.2 16.1 0.00 0.00 0.00 36 1010.4
20260504192001 22 183 1.6 16.1 0.00 0.00 0.00 35 1010.5
20260504191504 22 143 1.6 8.0 0.00 0.00 0.00 36 1010.8
20260504191459 22 124 0.0 16.1 0.00 0.00 0.00 35 1010.6
20260504190501 21 184 1.6 19.3 0.00 0.00 0.00 36 1010.8
20260504190230 21 153 3.2 19.3 0.00 0.00 0.00 38 1010.9
20260504185732 21 140 4.8 17.7 0.00 0.00 0.00 35 1010.9
20260504185225 21 155 3.2 17.7 0.00 0.00 0.00 37 1011.0
20260504184454 21 191 4.8 17.7 0.00 0.00 0.00 37 1011.1
20260504183954 21 157 3.2 16.1 0.00 0.00 0.00 37 1011.1
20260504183454 21 213 1.6 12.9 0.00 0.00 0.00 35 1011.1
20260504182954 21 215 3.2 14.5 0.00 0.00 0.00 36 1011.0
20260504182454 21 171 4.8 16.1 0.00 0.00 0.00 35 1011.0
20260504181949 21 171 4.8 16.1 0.00 0.00 0.00 37 1011.1
20260504181725 21 162 3.2 14.5 0.00 0.00 0.00 36 1011.4
20260504181450 21 171 3.2 16.1 0.00 0.00 0.00 37 1011.2
20260504180720 20 156 3.2 14.5 0.00 0.00 0.00 37 1011.4
20260504175950 20 188 1.6 12.9 0.00 0.00 0.00 36 1011.5
20260504175451 20 226 1.6 11.3 0.00 0.00 0.00 37 1011.5
20260504174951 20 186 3.2 16.1 0.00 0.00 0.00 37 1011.6
20260504174434 20 143 4.8 19.3 0.00 0.00 0.00 37 1011.7
20260504173936 20 248 4.8 19.3 0.00 0.00 0.00 37 1011.7
20260504173438 20 170 3.2 9.7 0.00 0.00 0.00 38 1011.8
20260504172935 20 166 1.6 11.3 0.00 0.00 0.00 37 1011.8
20260504172432 20 160 3.2 17.7 0.00 0.00 0.00 38 1011.8
20260504171932 20 212 3.2 17.7 0.00 0.00 0.00 37 1011.8
20260504171430 20 227 3.2 16.1 0.00 0.00 0.00 36 1011.9
20260504170930 20 175 3.2 16.1 0.00 0.00 0.00 38 1011.9
20260504170430 20 193 1.6 16.1 0.00 0.00 0.00 37 1012.0
20260504160415 19 152 0.0 8.0 0.00 0.00 0.00 46 1013.0
20260504160146 18 202 1.6 12.9 0.00 0.00 0.00 46 1013.1
20260504150858 17 169 1.6 11.3 0.00 0.00 0.00 48 1013.5
20260504150356 17 150 1.6 11.3 0.00 0.00 0.00 47 1013.5
20260504150130 17 164 0.0 8.0 0.00 0.00 0.00 48 1013.6
20260504141119 16 144 1.6 11.3 0.00 0.00 0.00 51 1013.7
20260504140348 16 244 1.6 9.7 0.00 0.00 0.00 51 1013.7
20260504130329 15 146 1.6 16.1 0.00 0.00 0.00 54 1014.1
20260504120317 12 190 0.0 0.0 0.00 0.00 0.00 66 1014.3
20260504110531 5 306 0.0 0.0 0.00 0.00 0.00 91 1014.6
20260504100249 4 273 0.0 0.0 0.00 0.00 0.00 91 1014.5
20260504081727 4 273 0.0 0.0 0.00 0.00 0.00 90 1014.8
20260504081227 4 273 0.0 0.0 0.00 0.00 0.00 90 1014.7
20260504080724 4 273 0.0 0.0 0.00 0.00 0.00 89 1014.8
20260504080224 4 273 0.0 0.0 0.00 0.00 0.00 89 1014.8
20260504070210 5 273 0.0 0.0 0.00 0.00 0.00 89 1014.8
20260504060154 5 273 0.0 0.0 0.00 0.00 0.00 88 1014.8
20260504050642 5 273 0.0 0.0 0.00 0.00 0.00 86 1015.0
20260504050142 5 273 0.0 0.0 0.00 0.00 0.00 86 1015.1
20260504045915 5 273 0.0 0.0 0.00 0.00 0.00 85 1015.0
20260504045144 5 273 0.0 0.0 0.00 0.00 0.00 85 1015.0
20260504044643 5 274 0.0 0.0 0.00 0.00 0.00 84 1015.0
20260504044139 5 273 0.0 0.0 0.00 0.00 0.00 84 1015.0
20260504043635 5 273 0.0 0.0 0.00 0.00 0.00 84 1015.0
20260504043135 5 273 0.0 0.0 0.00 0.00 0.00 84 1015.0
20260504042635 5 273 0.0 0.0 0.00 0.00 0.00 83 1015.0
20260504042132 5 273 0.0 0.0 0.00 0.00 0.00 83 1014.7
20260504041638 5 273 0.0 0.0 0.00 0.00 0.00 83 1014.6
20260504041633 5 274 0.0 0.0 0.00 0.00 0.00 84 1014.6
20260504040631 5 274 0.0 0.0 0.00 0.00 0.00 82 1014.8
20260504040131 5 273 0.0 0.0 0.00 0.00 0.00 82 1014.7
20260504035901 5 273 0.0 0.0 0.00 0.00 0.00 82 1014.6
20260504035130 5 273 0.0 0.0 0.00 0.00 0.00 82 1014.6
20260504034629 6 273 0.0 0.0 0.00 0.00 0.00 82 1014.6
20260504034130 6 274 0.0 0.0 0.00 0.00 0.00 82 1014.5
20260504033632 6 273 0.0 0.0 0.00 0.00 0.00 81 1014.4
20260504033126 6 274 0.0 0.0 0.00 0.00 0.00 81 1014.4
20260504032626 6 273 0.0 0.0 0.00 0.00 0.00 80 1014.3
20260504032123 6 274 0.0 0.0 0.00 0.00 0.00 80 1014.3
20260504031626 6 274 0.0 0.0 0.00 0.00 0.00 80 1014.3
20260504031124 6 274 0.0 0.0 0.00 0.00 0.00 79 1014.2
20260504030624 6 273 0.0 0.0 0.00 0.00 0.00 78 1014.2
20260504030122 6 273 0.0 0.0 0.00 0.00 0.00 77 1014.3
20260504025620 6 273 0.0 0.0 0.00 0.00 0.00 76 1014.3
20260504025118 7 274 0.0 0.0 0.00 0.00 0.00 76 1014.3
20260504024618 7 273 0.0 0.0 0.00 0.00 0.00 75 1014.3
20260504024115 7 274 0.0 0.0 0.00 0.00 0.00 75 1014.2
20260504023615 7 273 0.0 0.0 0.00 0.00 0.00 73 1014.1
20260504023350 7 273 0.0 0.0 0.00 0.00 0.00 71 1014.2
20260504022613 7 273 0.0 0.0 0.00 0.00 0.00 71 1014.2
20260504022342 7 273 0.0 0.0 0.00 0.00 0.00 70 1014.2
20260504021604 8 274 0.0 0.0 0.00 0.00 0.00 71 1014.1
20260504021104 8 273 0.0 0.0 0.00 0.00 0.00 70 1014.2
20260504020837 8 273 0.0 0.0 0.00 0.00 0.00 69 1014.2
20260504020106 8 274 0.0 0.0 0.00 0.00 0.00 68 1014.2
20260504015606 8 274 0.0 0.0 0.00 0.00 0.00 66 1014.1
20260504015106 8 274 0.0 0.0 0.00 0.00 0.00 67 1014.1
20260504014604 8 273 0.0 0.0 0.00 0.00 0.00 65 1014.1
20260504014105 8 273 0.0 0.0 0.00 0.00 0.00 64 1014.0
20260504013605 9 274 0.0 0.0 0.00 0.00 0.00 63 1014.1
20260504013105 9 274 0.0 0.0 0.00 0.00 0.00 63 1014.0
20260504012842 9 274 0.0 0.0 0.00 0.00 0.00 63 1014.0
20260504012100 10 273 0.0 0.0 0.00 0.00 0.00 63 1013.8
20260504011601 10 274 0.0 0.0 0.00 0.00 0.00 62 1013.9
20260504011102 10 274 0.0 0.0 0.00 0.00 0.00 60 1013.8
20260504010833 10 274 0.0 0.0 0.00 0.00 0.00 61 1013.7
20260504010101 10 274 0.0 0.0 0.00 0.00 0.00 60 1013.8
20260504005602 10 274 0.0 0.0 0.00 0.00 0.00 59 1013.7
20260504005058 11 274 0.0 0.0 0.00 0.00 0.00 52 1013.6
20260504004558 11 273 0.0 0.0 0.00 0.00 0.00 51 1013.6
20260504004328 11 274 0.0 0.0 0.00 0.00 0.00 51 1013.6
20260504003557 11 274 0.0 0.0 0.00 0.00 0.00 50 1013.6
20260504003057 12 274 0.0 0.0 0.00 0.00 0.00 47 1013.4
20260504002556 12 274 0.0 0.0 0.00 0.00 0.00 46 1013.4
20260504002058 13 274 0.0 0.0 0.00 0.00 0.00 45 1013.3
20260504001558 13 274 0.0 0.0 0.00 0.00 0.00 42 1013.2
20260504001104 13 274 0.0 0.0 0.00 0.00 0.00 39 1013.2
20260504001059 13 274 0.0 0.0 0.00 0.00 0.00 41 1013.2
20260504000050 14 274 0.0 0.0 0.00 0.00 0.00 38 1013.2
20260503235823 14 274 0.0 0.0 0.00 0.00 0.00 37 1013.1
20260503235321 15 274 0.0 0.0 0.00 0.00 0.00 36 1013.0
20260503234550 15 274 0.0 0.0 0.00 0.00 0.00 35 1013.0
20260503234321 15 274 0.0 1.6 0.00 0.00 0.00 34 1012.9
20260503233549 15 274 0.0 1.6 0.00 0.00 0.00 34 1012.8
20260503233049 15 296 0.0 11.3 0.00 0.00 0.00 34 1012.8
20260503232545 15 258 0.0 11.3 0.00 0.00 0.00 33 1012.7
20260503232046 15 242 0.0 3.2 0.00 0.00 0.00 32 1012.8
20260503231543 16 234 0.0 3.2 0.00 0.00 0.00 32 1012.8
20260503231043 16 299 0.0 8.0 0.00 0.00 0.00 32 1012.9
20260503230543 16 330 0.0 8.0 0.00 0.00 0.00 30 1012.8
20260503230314 16 248 0.0 1.6 0.00 0.00 0.00 31 1012.9
20260503225539 16 292 0.0 4.8 0.00 0.00 0.00 30 1012.9
20260503225039 16 240 1.6 20.9 0.00 0.00 0.00 30 1012.9
20260503224538 16 290 3.2 20.9 0.00 0.00 0.00 30 1012.9
20260503224040 16 304 1.6 14.5 0.00 0.00 0.00 30 1012.8
20260503223537 16 248 0.0 6.4 0.00 0.00 0.00 31 1012.7
20260503223040 16 315 0.0 0.0 0.00 0.00 0.00 30 1012.7
20260503222534 16 323 0.0 0.0 0.00 0.00 0.00 31 1012.7
20260503222035 16 250 0.0 24.1 0.00 0.00 0.00 30 1012.7
20260503221535 16 323 0.0 24.1 0.00 0.00 0.00 31 1012.8
20260503221033 16 229 1.6 24.1 0.00 0.00 0.00 30 1012.9
20260503220531 16 269 1.6 24.1 0.00 0.00 0.00 30 1012.8
20260503220030 16 266 0.0 4.8 0.00 0.00 0.00 29 1012.9
20260503215527 16 252 0.0 11.3 0.00 0.00 0.00 30 1012.9